Lambertville, MI

3:44 AM EST on February 08, 2016 (GMT -0500)
Toledo Suburban Airport

Weather History for KDUH - May, 2014

Change the Weather History Date:

Friday, May 23, 2014

  Actual Average (KTOL) Record (KTOL)
Temperature  
Mean Temperature 61 °F 62 °F  
Max Temperature 71 °F 73 °F 91 °F (1964)
Min Temperature 51 °F 51 °F 27 °F (1963)
Degree Days  
Heating Degree Days 4 5  
Month to date heating degree days 175  
Since 1 July heating degree days 6077  
Cooling Degree Days 0 2  
Month to date cooling degree days 25  
Year to date cooling degree days 33  
Growing Degree Days 11 (Base 50)    
Moisture  
Dew Point 45 °F    
Average Humidity 59    
Maximum Humidity 88    
Minimum Humidity 38    
Precipitation  
Precipitation 0.00 in 0.13 in 1.10 in (1999)
Month to date precipitation 2.61  
Year to date precipitation 12.40  
Snow  
Snow 0.00 in 0.00 in - ()
Month to date snowfall 0.1  
Since 1 July snowfall 37.6  
Snow Depth -    
Sea Level Pressure  
Sea Level Pressure 30.11 in    
Wind  
Wind Speed 5 mph (NW)    
Max Wind Speed 14 mph    
Max Gust Speed 20 mph    
Visibility 10 miles    
Events      
T = Trace of Precipitation, MM = Missing Value Source: NWS Daily Summary

Daily Weather History Graph

Daily Weather History Graph

Search for Another Location

Airport or City:

Trip Planner

Search our weather history database for the weather conditions in past years. The results will help you decide how hot, cold, wet, or windy it might be!

Date:

Astronomy

May. 23, 2014 Rise Set
Actual Time 6:07 AM EDT 8:55 PM EDT
Civil Twilight 5:35 AM EDT 9:28 PM EDT
Nautical Twilight 4:54 AM EDT 10:09 PM EDT
Astronomical Twilight 4:07 AM EDT 10:56 PM EDT
Moon 3:06 AM EDT (5/23) 3:42 PM EDT (5/23)
Length of Visible Light 15h 52m
Length of Day
14h 47m
Waning Crescent, 27% of the Moon is Illuminated
May 23
Waning Crescent
May 28
New
Jun 5
First Quarter
Jun 13
Full
Jun 19
Last Quarter

Hourly Weather History & Observations

Time (EDT) Temp. Dew Point Humidity Pressure Visibility Wind Dir Wind Speed Gust Speed Precip Events Conditions
12:15 AM 60.8 °F 50.0 °F 68% 30.06 in 10.0 mi NNW 5.8 mph - N/A   Mostly Cloudy
12:35 AM 60.8 °F 48.2 °F 63% 30.07 in 10.0 mi NNW 5.8 mph - N/A   Scattered Clouds
12:55 AM 60.8 °F 46.4 °F 59% 30.07 in 10.0 mi North 4.6 mph - N/A   Clear
1:15 AM 59.0 °F 44.6 °F 59% 30.07 in 10.0 mi Calm Calm - N/A   Scattered Clouds
1:35 AM 55.4 °F 46.4 °F 72% 30.06 in 10.0 mi Calm Calm - N/A   Scattered Clouds
1:55 AM 53.6 °F 46.4 °F 77% 30.06 in 10.0 mi Calm Calm - N/A   Scattered Clouds
2:15 AM 53.6 °F 46.4 °F 77% 30.06 in 10.0 mi Calm Calm - N/A   Mostly Cloudy
2:35 AM 53.6 °F 46.4 °F 77% 30.06 in 10.0 mi Calm Calm - N/A   Mostly Cloudy
2:55 AM 53.6 °F 46.4 °F 77% 30.06 in 10.0 mi Calm Calm - N/A   Mostly Cloudy
3:15 AM 51.8 °F 46.4 °F 82% 30.06 in 10.0 mi Calm Calm - N/A   Mostly Cloudy
3:35 AM 51.8 °F 46.4 °F 82% 30.06 in 10.0 mi Calm Calm - N/A   Mostly Cloudy
3:55 AM 53.6 °F 44.6 °F 72% 30.07 in 10.0 mi Calm Calm - N/A   Mostly Cloudy
4:15 AM 53.6 °F 44.6 °F 72% 30.07 in 10.0 mi NNW 3.5 mph - N/A   Mostly Cloudy
4:55 AM 53.6 °F 42.8 °F 67% 30.07 in 10.0 mi NNW 3.5 mph - N/A   Clear
5:15 AM 51.8 °F 42.8 °F 71% 30.07 in 10.0 mi NW 3.5 mph - N/A   Clear
5:35 AM 51.8 °F 42.8 °F 71% 30.08 in 10.0 mi NW 3.5 mph - N/A   Clear
5:55 AM 51.8 °F 42.8 °F 71% 30.09 in 10.0 mi Calm Calm - N/A   Clear
6:15 AM 51.8 °F 42.8 °F 71% 30.09 in 10.0 mi Calm Calm - N/A   Clear
6:35 AM 51.8 °F 42.8 °F 71% 30.10 in 10.0 mi WNW 3.5 mph - N/A   Clear
6:55 AM 51.8 °F 42.8 °F 71% 30.10 in 10.0 mi West 3.5 mph - N/A   Clear
7:15 AM 53.6 °F 42.8 °F 67% 30.10 in 10.0 mi WNW 3.5 mph - N/A   Clear
7:35 AM 53.6 °F 42.8 °F 67% 30.10 in 10.0 mi WNW 4.6 mph - N/A   Clear
7:55 AM 55.4 °F 42.8 °F 63% 30.10 in 10.0 mi WNW 6.9 mph - N/A   Clear
8:15 AM 55.4 °F 42.8 °F 63% 30.11 in 10.0 mi NW 8.1 mph 17.3 mph N/A   Clear
8:35 AM 55.4 °F 42.8 °F 63% 30.11 in 10.0 mi NNW 13.8 mph 19.6 mph N/A   Clear
8:55 AM 55.4 °F 42.8 °F 63% 30.12 in 10.0 mi NNW 12.7 mph 17.3 mph N/A   Clear
9:15 AM 57.2 °F 44.6 °F 63% 30.13 in 10.0 mi NNW 9.2 mph - N/A   Clear
9:35 AM 59.0 °F 44.6 °F 59% 30.13 in 10.0 mi NNW 11.5 mph - N/A   Clear
9:55 AM 59.0 °F 44.6 °F 59% 30.13 in 10.0 mi NNW 10.4 mph 17.3 mph N/A   Clear
10:15 AM 60.8 °F 44.6 °F 55% 30.12 in 10.0 mi NNW 9.2 mph - N/A   Clear
10:35 AM 60.8 °F 44.6 °F 55% 30.13 in 10.0 mi NNW 11.5 mph - N/A   Clear
10:55 AM 62.6 °F 44.6 °F 52% 30.13 in 10.0 mi WNW 10.4 mph 17.3 mph N/A   Scattered Clouds
11:15 AM 62.6 °F 44.6 °F 52% 30.13 in 10.0 mi North 8.1 mph 19.6 mph N/A   Scattered Clouds
11:35 AM 64.4 °F 44.6 °F 49% 30.14 in 10.0 mi NW 10.4 mph 16.1 mph N/A   Scattered Clouds
11:55 AM 62.6 °F 44.6 °F 52% 30.14 in 10.0 mi NNW 9.2 mph 16.1 mph N/A   Clear
12:35 PM 64.4 °F 44.6 °F 49% 30.13 in 10.0 mi NW 12.7 mph 19.6 mph N/A   Scattered Clouds
12:55 PM 64.4 °F 44.6 °F 49% 30.14 in 10.0 mi NNW 11.5 mph 17.3 mph N/A   Clear
1:15 PM 66.2 °F 44.6 °F 46% 30.14 in 10.0 mi NW 10.4 mph 16.1 mph N/A   Clear
1:35 PM 68.0 °F 44.6 °F 43% 30.13 in 10.0 mi WNW 10.4 mph - N/A   Scattered Clouds
1:55 PM 68.0 °F 44.6 °F 43% 30.13 in 10.0 mi West 8.1 mph - N/A   Scattered Clouds
2:15 PM 68.0 °F 44.6 °F 43% 30.13 in 10.0 mi WNW 8.1 mph - N/A   Clear
2:55 PM 69.8 °F 44.6 °F 40% 30.13 in 10.0 mi NW 6.9 mph - N/A   Scattered Clouds
3:15 PM 69.8 °F 44.6 °F 40% 30.12 in 10.0 mi NW 10.4 mph 16.1 mph N/A   Clear
3:35 PM 69.8 °F 42.8 °F 38% 30.12 in 10.0 mi WNW 4.6 mph - N/A   Clear
3:55 PM 71.6 °F 46.4 °F 41% 30.12 in 10.0 mi NW 4.6 mph - N/A   Clear
4:15 PM 69.8 °F 44.6 °F 40% 30.12 in 10.0 mi NW 8.1 mph - N/A   Clear
4:35 PM 71.6 °F 44.6 °F 38% 30.12 in 10.0 mi NW 9.2 mph 16.1 mph N/A   Clear
4:55 PM 69.8 °F 44.6 °F 40% 30.12 in 10.0 mi NNW 6.9 mph - N/A   Scattered Clouds
5:15 PM 69.8 °F 44.6 °F 40% 30.12 in 10.0 mi NNW 8.1 mph - N/A   Scattered Clouds
5:35 PM 71.6 °F 44.6 °F 38% 30.12 in 10.0 mi North 8.1 mph - N/A   Mostly Cloudy
5:55 PM 69.8 °F 46.4 °F 43% 30.12 in 10.0 mi North 9.2 mph - N/A   Scattered Clouds
6:15 PM 69.8 °F 46.4 °F 43% 30.12 in 10.0 mi NNW 5.8 mph - N/A   Scattered Clouds
6:35 PM 69.8 °F 44.6 °F 40% 30.12 in 10.0 mi North 9.2 mph - N/A   Mostly Cloudy
6:55 PM 69.8 °F 44.6 °F 40% 30.13 in 10.0 mi North 8.1 mph - N/A   Mostly Cloudy
7:15 PM 69.8 °F 44.6 °F 40% 30.13 in 10.0 mi North 9.2 mph - N/A   Scattered Clouds
7:35 PM 69.8 °F 44.6 °F 40% 30.13 in 10.0 mi NNW 6.9 mph - N/A   Clear
7:55 PM 68.0 °F 44.6 °F 43% 30.13 in 10.0 mi North 6.9 mph - N/A   Clear
8:15 PM 68.0 °F 44.6 °F 43% 30.13 in 10.0 mi NNW 3.5 mph - N/A   Clear
8:35 PM 64.4 °F 46.4 °F 52% 30.14 in 10.0 mi Calm Calm - N/A   Clear
8:55 PM 64.4 °F 46.4 °F 52% 30.14 in 10.0 mi Calm Calm - N/A   Clear
9:15 PM 62.6 °F 46.4 °F 55% 30.14 in 10.0 mi Calm Calm - N/A   Clear
9:35 PM 60.8 °F 50.0 °F 68% 30.14 in 10.0 mi Calm Calm - N/A   Clear
9:55 PM 59.0 °F 50.0 °F 72% 30.15 in 10.0 mi Calm Calm - N/A   Clear
10:15 PM 57.2 °F 50.0 °F 77% 30.16 in 10.0 mi Calm Calm - N/A   Clear
10:35 PM 55.4 °F 48.2 °F 77% 30.16 in 10.0 mi Calm Calm - N/A   Clear
10:55 PM 55.4 °F 50.0 °F 82% 30.16 in 10.0 mi Calm Calm - N/A   Clear
11:15 PM 55.4 °F 50.0 °F 82% 30.16 in 10.0 mi Calm Calm - N/A   Clear
11:35 PM 55.4 °F 50.0 °F 82% 30.16 in 10.0 mi Calm Calm - N/A   Clear
11:55 PM 53.6 °F 50.0 °F 88% 30.16 in 10.0 mi Calm Calm - N/A   Clear